DW7915 Braunschweig DE current weather conditions

sailwx.info

Wind from 355 at 3 knots gusting 7

Air temperature 12.8° C
Dewpoint 9.2° C

Last reported at 2018-Sep-22 07:08 UTC.
Time now 2018-Sep-22 08:00 UTC

Location: N 52°19' E 010°33'.
View on Google Maps.

See reports from other nearby stations

  
Tides and Currents Weather Stations Pressure Air Temp Water Temp Dewpoint Dewpoint Depression Visibility Wind Speed Wind Dir Waves Ship Positions
date/time (UTC)wind fromknots sea level pressurealtimeterstation pressurevisibilityair tempwater tempwave heightnotes
2018-Sep-22 07:08 355 3 gusting 7 12.8
2018-Sep-22 07:03 250 3 gusting 6 12.2
2018-Sep-22 06:58 287 2 gusting 7 12.2
2018-Sep-22 06:53 275 3 gusting 7 12.2
2018-Sep-22 06:48 200 3 gusting 7 12.2
2018-Sep-22 06:43 257 2 gusting 8 12.2
2018-Sep-22 06:38 139 1 gusting 6 11.7
2018-Sep-22 06:33 173 2 gusting 11 11.7
2018-Sep-22 06:28 294 4 gusting 11 11.7
2018-Sep-22 06:23 214 2 gusting 7 11.1
2018-Sep-22 06:18 268 2 gusting 6 11.1
2018-Sep-22 06:13 241 2 gusting 7 11.1
2018-Sep-22 06:08 223 2 gusting 7 11.1
2018-Sep-22 06:03 250 3 gusting 7 11.1
2018-Sep-22 05:58 194 2 gusting 7 10.6
2018-Sep-22 05:53 305 3 gusting 7 10.6
2018-Sep-22 05:48 276 1 gusting 6 10.6
2018-Sep-22 05:43 267 2 gusting 6 10.6
2018-Sep-22 05:38 233 2 gusting 6 10.6
2018-Sep-22 05:33 206 1 gusting 8 10.6
2018-Sep-21 20:33 216 2 gusting 7 12.8
2018-Sep-21 20:28 244 3 gusting 6 12.8
2018-Sep-21 20:23 206 2 gusting 8 12.8
2018-Sep-21 20:18 220 3 gusting 8 12.8
2018-Sep-21 20:13 205 2 gusting 7 12.8
2018-Sep-21 20:08 218 2 gusting 6 12.8
2018-Sep-21 20:03 234 2 gusting 5 13.3
2018-Sep-21 19:58 336 1 gusting 6 13.3
2018-Sep-21 19:53 214 1 gusting 7 13.3
2018-Sep-21 19:48 236 3 gusting 7 13.3
2018-Sep-21 19:43 207 1 gusting 7 13.3
2018-Sep-21 19:38 065 3 gusting 7 13.3
2018-Sep-21 19:33 275 2 gusting 6 13.9
2018-Sep-21 19:28 232 3 gusting 7 13.9
2018-Sep-21 19:23 216 2 gusting 7 13.9
2018-Sep-21 19:18 335 3 gusting 8 13.9
2018-Sep-21 19:13 255 4 gusting 8 13.9
2018-Sep-21 19:08 236 3 gusting 9 13.9
2018-Sep-21 19:03 325 2 gusting 7 13.9
2018-Sep-21 18:58 198 2 gusting 8 13.9
2018-Sep-21 18:53 286 3 gusting 8 13.9
2018-Sep-21 18:48 265 2 gusting 6 13.9
2018-Sep-21 18:43 223 2 gusting 7 13.9
2018-Sep-21 18:38 259 3 gusting 7 13.9
2018-Sep-21 18:33 178 2 gusting 5 13.9
2018-Sep-21 18:28 229 2 gusting 6 13.9
2018-Sep-21 18:23 005 2 gusting 6 13.9
2018-Sep-21 18:18 205 1 gusting 6 13.9
2018-Sep-21 18:13 270 2 gusting 6 13.9
2018-Sep-21 18:08 351 1 gusting 6 13.9
2018-Sep-21 18:03 342 3 gusting 6 13.9
2018-Sep-21 17:58 178 2 gusting 8 14.4
2018-Sep-21 17:53 252 3 gusting 8 14.4
2018-Sep-21 17:48 306 2 gusting 8 14.4
2018-Sep-21 17:43 225 2 gusting 8 14.4
2018-Sep-21 17:38 219 1 gusting 7 14.4
2018-Sep-21 17:33 202 3 gusting 7 14.4
2018-Sep-21 17:28 250 2 gusting 6 14.4
2018-Sep-21 17:23 360 2 gusting 6 15.0
2018-Sep-21 17:18 304 2 gusting 7 15.0
2018-Sep-21 17:13 209 2 gusting 7 15.0
2018-Sep-21 17:08 251 2 gusting 6 15.0
2018-Sep-21 17:03 209 2 gusting 6 15.0
2018-Sep-21 16:58 349 2 gusting 7 15.0
2018-Sep-21 16:53 300 2 gusting 6 15.0
2018-Sep-21 16:48 206 2 gusting 5 15.0
2018-Sep-21 16:43 266 2 gusting 6 15.0
2018-Sep-21 16:38 233 2 gusting 6 15.0
2018-Sep-21 16:33 355 1 gusting 6 14.4
2018-Sep-21 16:28 205 2 gusting 6 14.4
2018-Sep-21 16:23 209 2 gusting 6 14.4
2018-Sep-21 16:18 208 1 gusting 6 14.4
2018-Sep-21 16:13 178 2 gusting 6 14.4
2018-Sep-21 16:08 214 2 gusting 8 14.4
2018-Sep-21 16:03 350 1 gusting 8 14.4
2018-Sep-21 15:58 197 3 gusting 7 14.4
2018-Sep-21 15:53 200 3 gusting 6 14.4
2018-Sep-21 15:48 069 1 gusting 6 14.4
2018-Sep-21 15:43 251 2 gusting 6 14.4
2018-Sep-21 15:38 206 2 gusting 6 14.4
2018-Sep-21 15:33 231 2 gusting 6 14.4
2018-Sep-21 15:28 189 0 gusting 6 14.4
2018-Sep-21 15:23 192 1 gusting 6 14.4
2018-Sep-21 15:18 236 3 gusting 6 14.4
2018-Sep-21 15:13 210 3 gusting 6 14.4
2018-Sep-21 15:08 078 2 gusting 6 14.4
2018-Sep-21 15:03 218 1 gusting 5 14.4
2018-Sep-21 14:58 080 2 gusting 9 13.9
2018-Sep-21 14:53 133 2 gusting 9 13.9
2018-Sep-21 14:48 220 2 gusting 5 13.9
2018-Sep-21 14:43 134 3 gusting 8 13.9
2018-Sep-21 14:38 146 3 gusting 8 13.9
2018-Sep-21 14:33 185 2 gusting 5 13.9
2018-Sep-21 14:28 183 2 gusting 5 13.9
2018-Sep-21 14:23 221 2 gusting 6 13.9
2018-Sep-21 14:18 227 2 gusting 6 13.9
2018-Sep-21 14:13 187 0 gusting 5 13.9
2018-Sep-21 14:08 189 1 gusting 3 13.9
2018-Sep-21 14:03 209 0 gusting 4 13.9
2018-Sep-21 13:58 200 1 gusting 4 13.9
2018-Sep-21 13:53 215 0 gusting 4 13.9
2018-Sep-21 13:48 175 1 gusting 4 13.9
2018-Sep-21 13:43 225 0 gusting 3 13.9
2018-Sep-21 13:38 229 0 gusting 3 13.9
2018-Sep-21 13:33 080 1 gusting 4 13.9
2018-Sep-21 13:28 199 1 gusting 4 13.9
2018-Sep-21 13:23 223 0 gusting 3 13.9
2018-Sep-21 13:18 331 1 gusting 4 13.9
2018-Sep-21 13:13 284 0 gusting 6 13.9
2018-Sep-21 13:08 312 2 gusting 10 13.9
2018-Sep-21 13:03 079 3 gusting 10 14.4
2018-Sep-21 12:58 263 4 gusting 10 14.4
2018-Sep-21 12:53 302 5 gusting 13 14.4
2018-Sep-21 12:48 324 7 gusting 13 15.0
2018-Sep-21 12:43 306 7 gusting 16 15.0
2018-Sep-21 12:38 285 6 gusting 18 15.6
2018-Sep-21 12:33 044 7 gusting 18 15.6
2018-Sep-21 12:28 291 6 gusting 18 16.1
2018-Sep-21 12:23 263 6 gusting 18 16.1
2018-Sep-21 12:18 215 6 gusting 14 16.7
2018-Sep-21 12:13 048 6 gusting 16 17.8
2018-Sep-21 12:08 344 7 gusting 16 18.9
2018-Sep-21 12:03 360 6 gusting 17 20.6
2018-Sep-21 11:58 360 7 gusting 17 22.8
2018-Sep-21 11:53 360 7 gusting 17 25.0
2018-Sep-21 11:48 360 5 gusting 16 25.0
2018-Sep-21 11:43 360 6 gusting 14 25.6
2018-Sep-21 11:38 360 8 gusting 13 25.6
2018-Sep-21 11:33 360 5 gusting 13 26.1
2018-Sep-21 11:28 212 4 gusting 13 26.1
2018-Sep-21 11:23 360 6 gusting 13 26.1
2018-Sep-21 11:18 216 4 gusting 13 26.1
2018-Sep-21 11:13 139 5 gusting 13 26.1
2018-Sep-21 11:08 180 4 gusting 11 26.1
2018-Sep-21 11:03 360 3 gusting 11 25.6
2018-Sep-21 10:58 360 2 gusting 8 25.6
2018-Sep-21 10:53 360 4 gusting 10 25.6
2018-Sep-21 10:48 360 4 gusting 13 25.6
2018-Sep-21 10:43 360 6 gusting 13 25.6
2018-Sep-21 10:38 360 4 gusting 11 25.6
2018-Sep-21 10:33 360 5 gusting 15 26.1
2018-Sep-21 10:28 360 5 gusting 11 26.1
2018-Sep-21 10:23 360 4 gusting 13 26.1
2018-Sep-21 10:18 360 6 gusting 13 26.1
2018-Sep-21 10:13 360 3 gusting 13 26.1
2018-Sep-21 10:08 360 6 gusting 13 25.6
2018-Sep-21 10:03 360 4 gusting 10 25.6
2018-Sep-21 09:58 360 5 gusting 11 25.6
2018-Sep-21 09:53 360 4 gusting 11 25.0
2018-Sep-21 09:48 360 5 gusting 17 25.0
2018-Sep-21 09:43 360 5 gusting 17 25.0
2018-Sep-21 09:38 360 3 gusting 11 25.0
2018-Sep-21 09:33 360 4 gusting 11 25.0
2018-Sep-21 09:28 360 4 gusting 12 25.0
2018-Sep-21 09:23 360 5 gusting 12 25.0
2018-Sep-21 09:18 360 4 gusting 11 25.0
2018-Sep-21 09:13 360 5 gusting 9 25.0
2018-Sep-21 09:08 360 4 gusting 10 25.0
2018-Sep-21 09:03 360 3 gusting 11 25.0
2018-Sep-21 08:58 360 5 gusting 11 25.0
2018-Sep-21 08:53 360 5 gusting 12 25.0
2018-Sep-21 08:48 360 6 gusting 12 25.0
2018-Sep-21 08:43 360 5 gusting 11 25.0
2018-Sep-21 08:38 360 5 gusting 14 25.6
2018-Sep-21 08:33 360 6 gusting 14 25.6
2018-Sep-21 08:28 360 5 gusting 12 25.6
2018-Sep-21 08:23 360 5 gusting 12 25.6
2018-Sep-21 08:18 360 5 gusting 13 25.6
2018-Sep-21 08:13 360 4 gusting 13 25.6
2018-Sep-21 08:08 360 6 gusting 12 25.6
2018-Sep-21 08:03 360 4 gusting 12 25.6
2018-Sep-21 07:58 360 4 gusting 9 25.6
2018-Sep-21 07:53 360 4 gusting 10 25.6
2018-Sep-21 07:48 360 5 gusting 11 25.6
2018-Sep-21 07:43 360 2 gusting 10 25.6
2018-Sep-21 07:38 360 4 gusting 11 25.6
2018-Sep-21 07:33 360 3 gusting 9 25.6
2018-Sep-21 07:28 360 3 gusting 9 25.0
2018-Sep-21 07:23 360 2 gusting 7 25.0
2018-Sep-21 07:18 360 2 gusting 5 25.0
2018-Sep-21 07:13 141 1 gusting 5 24.4
2018-Sep-21 07:08 360 2 gusting 5 24.4
2018-Sep-21 07:03 158 1 gusting 4 23.9
2018-Sep-21 06:58 360 1 gusting 4 23.9
2018-Sep-21 06:53 133 1 gusting 3 23.3
2018-Sep-21 06:48 360 1 gusting 2 22.8
2018-Sep-21 06:43 360 1 gusting 4 22.8
2018-Sep-21 06:38 167 1 gusting 4 22.2
2018-Sep-21 06:33 360 1 gusting 4 21.7
2018-Sep-21 06:28 360 1 gusting 4 21.7
2018-Sep-20 20:08 123 19.4
2018-Sep-20 20:03 123 19.4
2018-Sep-20 19:58 123 19.4
2018-Sep-20 19:53 123 19.4
2018-Sep-20 19:48 123 19.4
2018-Sep-20 19:43 123 19.4
2018-Sep-20 19:38 123 19.4
2018-Sep-20 19:33 123 19.4
2018-Sep-20 19:28 123 19.4
2018-Sep-20 19:23 123 20.0
2018-Sep-20 19:18 123 20.0
2018-Sep-20 19:13 123 20.0
2018-Sep-20 19:08 123 20.0
2018-Sep-20 19:03 123 20.0
2018-Sep-20 18:58 123 20.0
2018-Sep-20 18:53 123 20.6
2018-Sep-20 18:48 123 20.6
2018-Sep-20 18:43 123 20.6
2018-Sep-20 18:38 123 20.6
2018-Sep-20 18:33 123 20.6
2018-Sep-20 10:53 360 4 gusting 8 25.0
2018-Sep-20 10:48 360 4 gusting 8 25.0
2018-Sep-20 10:43 360 4 gusting 9 25.0
2018-Sep-20 10:38 360 3 gusting 9 25.0
2018-Sep-20 10:33 360 3 gusting 8 25.0
2018-Sep-20 10:28 360 2 gusting 8 25.0
2018-Sep-20 10:23 360 3 gusting 8 25.0
2018-Sep-20 10:18 360 2 gusting 8 25.0
2018-Sep-20 10:13 360 2 gusting 7 24.4
2018-Sep-20 10:08 360 2 gusting 6 24.4
2018-Sep-20 10:03 360 3 gusting 6 24.4
2018-Sep-20 09:58 360 2 gusting 9 24.4
2018-Sep-20 09:53 360 3 gusting 9 24.4
2018-Sep-20 09:48 360 3 gusting 8 24.4
2018-Sep-20 09:43 360 2 gusting 7 24.4
2018-Sep-20 09:38 360 2 gusting 7 23.9
2018-Sep-20 09:33 360 2 gusting 7 23.9
2018-Sep-20 09:28 360 1 gusting 6 23.9
2018-Sep-20 09:23 360 2 gusting 6 23.9
2018-Sep-20 09:18 360 1 gusting 5 23.9
2018-Sep-20 09:13 360 1 gusting 3 23.9
2018-Sep-20 09:08 360 1 gusting 3 23.3
2018-Sep-20 09:03 360 2 gusting 5 22.8
2018-Sep-20 08:58 219 2 gusting 4 22.2
2018-Sep-20 08:53 360 1 gusting 4 22.2
2018-Sep-20 08:48 360 1 gusting 6 22.2
2018-Sep-20 08:43 224 0 gusting 6 22.2
2018-Sep-20 08:38 198 1 gusting 5 22.2
2018-Sep-20 08:33 169 1 gusting 4 22.2
2018-Sep-20 08:28 126 1 gusting 4 22.2
2018-Sep-20 08:23 360 1 gusting 4 21.7
2018-Sep-20 08:18 171 1 gusting 4 21.7
2018-Sep-20 08:13 360 1 gusting 4 21.7
2018-Sep-20 08:08 195 1 gusting 4 21.7
2018-Sep-20 08:03 360 1 gusting 4 21.7